SCOUT X-4 R/B, 809

Orbit data source: Space-Track

SCOUT X-4 R/B, 809 is space debris in LEO originally from a launch on Thu, 04 Jun 1964 UTC launched from the Air Force Western Test Range (AFWTR). Debris objects in space refer to the collection of defunct objects orbiting the Earth. Examples of debris include non-operational satellites, rocket bodies, and fragments generated from explosions, collisions, or faulty payload assembly.

Loading next visibility...
Identifier
809, 1964-026D
Orbit
LEO
Country
Flag of USUS
Related business
Manufacturer
ABL
Mission
Spacecraft
Bus & Motor
ALTAIR, Unknown motor
Mass
33 kg wet, 33 kg dry
Launch date (UTC)
1964-06-04 (62 years ago)
Launch vehicle
Unknown
Launch site
Air Force Western Test Range (AFWTR)
Object type
Payload
Rocket body
Debris
Shape & HBR
Unknown
Radar Cross Section
Medium (>0.1 m² and <1 m²)

Expand to show TLE details & history
Last TLE update: 9 hours ago

TLE from 9 hours ago
0 SCOUT X-4 R/B
1   809U 64026D   26127.55596797  .00000367  00000-0  19873-3 0  9993
2   809  90.4447 175.8352 0039629 190.1357 169.9033 14.10776770172419
Epoch: 2026-05-07T13:20Z
TLE epoch observation values (Epoch: 2026-05-07T13:20:35.632Z)
Latitude
-0.00008°
Longitude
110.28632°
Altitude
887.993 km
Speed
7.394 km/s
True Right ascension
11h 43m 20s
True Declination
0° 00' 00"
Sunlit
Object was in full shadow at epoch
Visualization orbit readout
Latitude
Unknown
Longitude
Unknown
Altitude
Unknown
Speed
Unknown
Apparent Right ascension
Unknown
Apparent Declination
Unknown
Sunlit
N/A
Visualization observer readout
Local Sidereal Time
06:14:44
Azimuth
Unknown
Elevation
Unknown
Doppler factor
Unknown
Orbital elements
Apogee altitude
882.336 km
Perigee altitude
825.018 km
Semi-major axis
7,231.814 km
Eccentricity
0.00396
Inclination
90.4447°
RAAN
175.8352°
Arg. of periapsis
190.1357°
True anomaly
169.98252°
Mean anomaly
169.9033°
Eccentric anomaly
169.94295°
Mean motion
3.52917 °/min
Orbital period
102.01 mins
BSTAR
0.00019873
Loading maneuver chart data...
Computing Atmospheric mass density...
Loading historical data...
Loading historical data...
Loading historical data...
Loading historical data...
Loading historical data...
Loading historical data...
Loading historical data...

Documentation

Showing up to 5 results
|